Home > Weather > Eckernförde > Past weeks

Flag for Germany Weather for the Past 2 Weeks in Eckernförde, Schleswig-Holstein, Germany

Now
37 °F

Chilly.


Feels Like: 33 °F
Forecast: 33 / 37 °F
Wind: 6 mph from West

Location: Schleswig-Jagel

Current Time: Feb 11, 2016 at 9:01:59 PM

Latest Report: Feb 11, 2016 at 8:20 PM


Visibility: 4 mi

Pressure: 29.53 "Hg

Humidity: 93%

Dew point: 36 °F

Location of EckernfördeLocation

Historic Weather in Eckernförde — Graph

°F

Eckernförde Temperature Yesterday

Maximum temperature yesterday: 39 °F (at 12:20 PM)
Minimum temperature yesterday: 36 °F (at 5:20 AM)
Average temperature yesterday: 38 °F

High & Low Weather Summary for the Past Weeks

 TemperatureHumidityPressure
High52 °F (Jan 27, 8:20 PM)100% (Jan 27, 7:20 PM)30.15 "Hg (Jan 27, 7:20 PM)
Low32 °F (Feb 4, 8:20 PM)66% (Feb 7, 11:20 PM)28.85 "Hg (Feb 9, 9:45 PM)
Average42 °F86%29.59 "Hg
* Reported Jan 27 7:01 PM — Feb 11 7:20 PM, Eckernförde, Weather by CustomWeather, © 2016

Note: Actual official high and low records may vary slightly from our data, if they occured in-between our weather recording intervals... More about our weather records

Advertising

Eckernförde Weather History for the Previous 24 Hours

 ConditionsComfort  
Time TempWeatherWind HumidityBarometerVisibility
7:20 PM
Thu, Feb 11
37 °FChilly.7 mph93%29.53 "Hg4 mi
6:20 PM37 °FChilly.7 mph93%29.50 "Hg5 mi
5:20 PM39 °FPartly sunny.9 mph93%29.50 "HgN/A
4:20 PM41 °FBroken clouds.14 mph87%29.50 "HgN/A
3:20 PM43 °FPartly sunny.15 mph87%29.47 "HgN/A
2:20 PM41 °FPartly sunny.9 mph87%29.47 "HgN/A
1:20 PM43 °FBroken clouds.9 mph87%29.45 "HgN/A
12:20 PM41 °FSprinkles. Broken clouds.10 mph93%29.45 "HgN/A
11:20 AM41 °FBroken clouds.8 mph93%29.45 "HgN/A
10:20 AM41 °FPartly sunny.8 mph93%29.45 "HgN/A
9:20 AM39 °FSprinkles. Broken clouds.8 mph100%29.42 "Hg4 mi
8:20 AM39 °FBroken clouds.9 mph93%29.39 "Hg5 mi
7:20 AM39 °FPassing clouds.8 mph93%29.39 "HgN/A
6:20 AM39 °FPassing clouds.6 mph93%29.39 "HgN/A
5:20 AM39 °FChilly.8 mph93%29.36 "Hg4 mi
4:20 AM39 °FChilly.7 mph93%29.36 "Hg4 mi
3:20 AM39 °FChilly.7 mph93%29.33 "Hg4 mi
2:20 AM39 °FChilly.6 mph93%29.33 "Hg1 mi
1:20 AM39 °FChilly.3 mph93%29.30 "Hg1 mi
12:20 AM39 °FChilly.7 mph100%29.30 "Hg1 mi
11:20 PM
Wed, Feb 10
39 °FChilly.6 mph100%29.27 "Hg1 mi
10:20 PM39 °FChilly.3 mph100%29.24 "Hg1 mi
9:20 PM39 °FFog.3 mph100%29.21 "Hg2 mi
Weather by CustomWeather, © 2016

See weather overviewHow to use our weather pages